Location: Red Deer
(52.2681°N, 113.8112°W)
Time: 20:47:05
(UTC-07:00)

N. Korean satellite - Pass Details

Date: 05 December 2022
Orbit: 407 x 441 km, 97.3° (Epoch: 05 February)

Event Time Altitude Azimuth Distance (km) Brightness Sun altitude
Rises 05:04:16 0° 26° (NNE) 2,522 10.5 -29.9°
Reaches altitude 10° 05:06:49 10° 46° (NE) 1,633 9.8 -29.5°
Maximum altitude 05:09:20 18° 91° (E) 1,198 9.3 -29.1°
Drops below altitude 10° 05:11:48 10° 137° (SE) 1,606 9.7 -28.8°
Sets 05:14:17 0° 157° (SSE) 2,462 10.4 -28.4°
